Simultaneous Nadir Overpasses (SNOs) Predictions

Prediction of SNOs between GOES-15 and TERRA Satellite Orbit:

Table of predicted SNOs for the next 14.0 days since TLE Epoch: 11/19/2022
Index Date Time (GOES-15) GOES-15 Lat,Lon TERRA Lat,Lon Distance(km) Time Diff (sec)
1 11/19/2022 18:45:19 -0.19,-128.21 -0.19,-128.36 16.78 80
2 11/21/2022 18:32:17 -0.20,-128.17 -0.93,-124.56 410.35 80
3 11/22/2022 06:52:47 0.19,-128.18 -0.13,-129.54 154.52 80
4 11/24/2022 06:34:26 0.19,-128.13 0.70,-125.75 271.11 80
5 11/24/2022 18:54:47 -0.18,-128.09 0.37,-130.69 294.93 80
6 11/26/2022 18:41:45 -0.17,-128.04 -0.39,-126.89 129.96 80
7 11/27/2022 07:02:14 0.16,-128.05 -0.65,-131.87 434.26 80
8 11/29/2022 06:46:32 0.16,-127.98 0.14,-128.07 9.99 80
9 12/01/2022 06:28:11 0.16,-127.92 0.94,-124.27 414.27 80
10 12/01/2022 18:48:31 -0.15,-127.87 0.14,-129.21 152.83 80
